TRAAC DEB, 10796

Orbit data source: Space-Track

TRAAC DEB, 10796 is space debris in LEO originally from a launch on Wed, 15 Nov 1961 UTC launched from the Air Force Eastern Test Range (AFETR). Debris objects in space refer to the collection of defunct objects orbiting the Earth. Examples of debris include non-operational satellites, rocket bodies, and fragments generated from explosions, collisions, or faulty payload assembly.

Loading next visibility...
Identifier
10796, 1961-031D
Orbit
LEO
Country
Flag of USUS
Related business
Manufacturer
Unknown
Mission
Spacecraft
Bus & Motor
Unknown
Mass
Unknown
Launch date (UTC)
1961-11-15 (64 years ago)
Launch vehicle
Unknown
Launch site
Air Force Eastern Test Range (AFETR)
Object type
Payload
Rocket body
Debris
Shape & HBR
Unknown shape, 0.2 m
Radar Cross Section
Small (<0.1 m²)

Expand to show TLE details & history
Last TLE update: 9 hours ago

TLE from 9 hours ago
0 TRAAC DEB
1 10796U 61031D   25308.65667425  .00000106  00000-0  10179-3 0  9991
2 10796  32.4393 143.0697 0101261 157.4577 262.2510 13.63216903189589
Epoch: 2025-11-04T15:45Z
TLE epoch observation values (Epoch: 2025-11-04T15:45:36.655Z)
Latitude
27.34859°
Longitude
-83.42039°
Altitude
1,034.059 km
Speed
7.334 km/s
True Right ascension
13h 08m 29s
True Declination
27° 12' 49"
Sunlit
Object was in daylight at epoch
Visualization orbit readout
Latitude
Unknown
Longitude
Unknown
Altitude
Unknown
Speed
Unknown
Apparent Right ascension
Unknown
Apparent Declination
Unknown
Sunlit
N/A
Visualization observer readout
Local Sidereal Time
20:26:14
Azimuth
Unknown
Elevation
Unknown
Doppler factor
Unknown
Orbital elements
Apogee altitude
1,102.402 km
Perigee altitude
952.423 km
Semi-major axis
7,405.549 km
Eccentricity
0.01013
Inclination
32.4393°
RAAN
143.0697°
Arg. of periapsis
157.4577°
True anomaly
261.10327°
Mean anomaly
262.251°
Eccentric anomaly
261.67693°
Mean motion
3.40571 °/min
Orbital period
105.7 mins
BSTAR
0.00010179
Loading maneuver chart data...
Computing Atmospheric mass density...
Loading historical data...
Loading historical data...
Loading historical data...
Loading historical data...
Loading historical data...
Loading historical data...
Loading historical data...
Other satellites on launch #31 in the year 1961 (1961-11-15 UTC)

Documentation

Showing up to 5 results
|